EHI
18 23 29 32 32 29 28 29 26 22 23 26 25 21 19 16 14 14 15 15 14 13 10 7 4 4 4 4 4 3 2 1 1 0 0 0 0 0 0 0 0 0 0
20 25 32 34 33 30 28 29 27 24 23 24 23 20 18 16 14 14 14 13 12 11 10 8 6 5 5 5 4 3 1 1 1 0 0 0 0 0 0 0 0 0 0
24 29 35 36 34 33 32 31 29 27 24 23 21 19 17 16 15 14 13 12 12 11 10 9 8 6 6 5 3 2 1 1 1 0 0 0 0 0 0 0 0 0 0
24 30 37 38 36 35 35 34 31 28 26 24 21 18 16 15 14 13 12 11 12 11 11 10 9 7 6 5 2 1 1 1 0 0 0 0 0 0 0 0 0 0 0
20 27 34 38 39 38 37 35 31 28 26 24 20 16 14 12 12 11 11 10 11 11 10 10 9 7 6 4 1 0 0 0 0 0 0 0 0 0 0 0 0 0 0
18 23 31 38 41 42 41 38 33 28 26 23 18 15 13 11 11 11 11 11 11 10 10 10 9 7 5 3 1 0 0 0 0 0 0 0 0 0 0 0 0 0 0
19 22 29 37 42 45 46 43 36 31 28 25 20 16 14 12 12 12 13 12 11 10 10 10 9 7 4 3 1 0 0 0 0 0 0 0 0 0 0 0 0 0 0
22 23 28 36 42 46 48 46 40 35 32 29 25 21 18 16 15 14 14 13 10 10 10 10 9 7 4 2 1 0 0 0 0 0 0 0 0 0 0 0 0 0 0
26 25 27 33 39 43 45 44 41 37 35 33 31 27 23 20 18 17 15 13 10 11 12 13 11 7 4 2 0 0 0 0 0 0 0 0 0 0 0 0 0 0 0
30 28 27 30 34 37 40 41 40 39 37 35 34 30 25 24 23 21 19 14 12 13 15 15 12 7 4 2 1 1 0 0 0 0 0 0 0 0 0 0 0 0 0
29 28 26 25 28 31 33 36 39 40 39 37 34 29 25 25 26 25 23 18 15 15 16 15 11 6 3 3 4 2 1 0 0 0 0 0 0 0 0 0 0 0 1
26 25 22 21 23 26 28 30 35 40 40 37 34 29 26 25 26 26 24 21 18 15 14 12 8 5 3 5 5 3 1 0 0 0 0 0 0 0 0 0 1 1 2
23 23 21 19 20 23 25 25 29 33 35 35 35 32 29 26 25 24 23 22 20 17 12 8 6 5 5 5 4 3 3 1 1 0 0 0 0 0 0 1 2 3 3
24 24 23 20 21 23 24 24 23 23 26 31 33 31 28 25 23 23 22 21 21 18 11 6 5 6 6 5 4 4 5 4 2 1 0 1 2 2 2 2 3 3 3
25 25 23 21 23 24 23 20 17 15 19 23 26 25 23 20 19 19 19 19 19 16 10 6 6 7 6 4 4 5 6 5 4 2 1 2 3 4 3 3 3 3 3
22 21 19 18 20 20 17 14 12 11 13 15 17 17 16 15 15 15 15 15 16 13 10 8 8 7 6 4 3 4 6 6 6 5 3 2 2 2 2 1 1 2 2
18 17 16 15 15 14 12 10 10 9 8 9 10 12 13 13 13 13 11 12 12 11 10 10 9 8 6 4 2 2 5 6 6 6 5 4 2 1 1 1 1 1 2
17 16 16 15 13 13 11 11 10 9 7 6 7 9 11 11 11 10 8 8 10 10 9 10 9 9 7 3 1 1 3 5 5 5 6 6 4 3 3 3 3 2 2
17 17 17 16 14 13 12 12 11 9 7 6 6 7 9 9 9 7 5 6 7 7 8 9 9 9 7 2 0 1 3 5 4 4 5 5 5 3 2 3 3 1 1
16 17 17 15 14 13 11 10 9 8 7 7 7 7 8 9 8 5 4 4 5 5 5 6 7 7 5 2 0 1 4 5 4 4 4 3 3 1 1 2 2 1 0
15 16 15 13 13 11 8 7 6 6 7 8 8 7 8 8 6 4 3 3 3 3 3 4 5 4 3 1 0 1 4 5 5 4 3 2 1 0 0 1 1 0 0
14 13 11 10 9 8 6 4 4 5 8 9 9 8 7 7 5 4 3 4 3 2 2 3 3 3 3 2 1 0 2 3 4 3 3 2 0 0 0 0 0 0 0
12 10 8 7 7 6 5 4 4 6 8 9 9 8 6 5 5 4 4 5 4 2 2 2 2 3 3 3 1 0 0 1 2 2 2 1 0 0 0 0 0 0 0
9 8 6 6 6 7 6 5 5 7 8 9 7 6 4 4 4 5 5 6 5 3 2 2 2 2 3 3 3 2 0 0 1 1 1 0 0 0 0 0 0 0 0
5 4 4 4 6 7 7 6 6 7 8 7 6 4 3 3 4 5 5 5 4 3 3 3 3 2 2 3 4 3 1 0 0 0 0 0 0 0 0 0 0 0 0
3 2 2 3 4 5 6 6 6 7 7 6 5 4 3 4 5 5 4 4 4 3 2 3 3 3 2 2 3 2 1 0 0 0 0 0 0 0 0 0 0 0 0
Wind_Speed
8 9 10 10 9 8 8 7 7 6 5 3 3 3 3 2 1 2 3 3 3 3 3 2 2 2 2 2 2 3 2 1 1 2 2 3 2 2 1 1 1 1 1
7 8 9 9 9 9 8 7 7 6 6 4 4 3 3 2 2 2 2 3 3 3 3 3 2 2 2 2 2 2 2 1 1 2 2 2 3 3 2 1 1 1 1
12 11 10 9 10 9 9 8 7 7 6 5 3 3 2 2 1 1 2 2 3 4 3 3 3 2 2 2 1 2 3 1 0 1 3 2 1 2 2 2 1 1 0
11 11 11 11 11 10 9 8 8 7 6 6 5 6 5 4 4 3 2 2 3 3 4 4 4 3 2 2 1 2 2 3 1 0 1 2 3 2 1 2 2 1 0
12 12 12 12 11 10 9 7 6 5 5 6 7 6 4 3 2 2 3 3 2 3 4 4 3 3 2 2 2 2 2 2 2 1 1 1 1 1 2 0 2 2 1
11 11 10 9 8 8 7 7 7 5 5 6 6 6 6 5 4 4 4 3 2 2 3 3 3 3 2 2 2 2 2 2 2 1 2 2 2 1 2 1 1 1 2
10 9 10 10 10 9 9 8 8 6 5 6 6 6 7 7 7 6 5 4 3 2 3 3 3 2 2 2 2 2 2 2 2 2 1 2 2 2 2 2 1 1 2
9 10 11 12 11 11 9 9 9 8 7 7 6 5 6 5 5 5 5 5 4 4 4 4 3 3 3 2 2 1 1 1 1 2 2 1 1 2 2 3 2 0 2
7 8 9 10 10 10 10 10 9 7 7 7 6 5 5 5 5 5 5 4 4 4 4 4 4 3 3 3 2 1 2 1 1 1 2 2 1 1 2 2 3 3 1
6 6 7 8 8 8 8 8 9 8 7 6 5 5 5 5 5 5 5 5 5 4 5 5 4 3 3 3 2 2 1 1 1 1 2 1 1 1 1 2 1 2 3
7 7 6 7 6 6 6 7 7 7 6 6 5 4 4 4 5 5 5 6 5 5 5 5 5 4 3 3 2 2 2 2 1 1 1 1 1 1 1 1 1 1 2
6 6 5 5 5 5 5 5 6 6 7 6 5 4 3 4 5 5 5 6 6 5 5 5 4 4 4 3 3 3 2 2 2 1 1 1 1 1 1 1 2 1 2
6 5 5 5 5 4 5 4 4 4 4 5 5 4 4 4 4 4 5 5 5 5 4 4 4 4 4 3 3 3 3 3 3 2 2 2 2 2 1 2 2 1 1
6 6 4 4 5 4 4 4 4 4 4 4 5 5 5 5 5 5 5 5 5 5 5 4 4 3 3 3 3 2 2 2 2 2 2 3 3 3 3 2 3 2 2
6 6 6 5 5 5 4 4 4 4 4 4 4 4 4 3 3 4 4 4 4 5 4 4 3 3 3 3 3 3 3 2 2 1 1 2 3 3 3 2 3 3 2
6 5 5 5 5 5 5 4 4 4 4 5 3 3 4 4 4 3 3 4 4 3 3 3 3 3 2 3 4 3 2 2 2 1 1 1 1 2 3 3 3 4 3
5 4 4 4 5 5 5 5 4 4 4 4 3 3 3 4 4 4 4 4 4 4 3 3 3 3 2 4 5 5 3 2 2 2 2 1 1 2 1 1 1 1 3
4 4 3 4 4 4 4 4 4 4 4 4 3 3 4 4 4 3 4 3 3 3 3 3 3 3 2 3 4 4 3 2 2 3 3 2 2 2 2 2 1 1 2
4 4 4 3 4 4 4 5 4 4 4 4 3 3 3 4 3 3 3 3 3 2 2 3 3 3 3 4 4 4 2 1 2 3 3 3 3 3 3 2 2 2 3
2 3 3 3 3 3 4 5 5 4 3 3 3 3 4 4 4 3 2 2 2 3 2 2 3 3 3 3 4 4 2 2 1 2 2 4 4 3 4 3 3 3 4
3 3 4 3 3 3 4 4 4 3 2 2 2 3 2 3 3 3 2 2 2 2 2 2 1 2 2 2 3 4 3 3 2 2 2 2 4 4 5 4 4 6 4
2 3 4 2 2 3 4 4 3 3 2 3 3 2 2 2 2 2 1 2 2 2 2 2 1 1 1 2 3 4 4 4 2 2 2 3 4 4 5 4 4 5 3
3 3 4 3 1 2 4 4 3 2 2 3 2 2 2 1 2 2 2 2 2 2 2 2 2 1 1 1 3 3 4 4 2 2 4 4 5 4 3 4 4 3 1
3 3 4 3 2 2 2 3 3 3 3 3 2 2 2 1 1 2 2 2 2 2 2 2 2 2 2 2 2 2 2 2 2 2 3 3 3 2 3 3 2 2 2
2 3 4 3 2 2 2 2 3 3 3 2 2 2 2 2 1 1 1 2 2 4 4 4 4 4 4 5 6 5 3 3 3 1 1 1 1 1 1 1 2 1 1
3 2 3 3 3 3 3 3 3 4 4 2 1 2 2 1 1 1 0 1 1 1 3 4 5 4 6 6 7 7 6 6 4 2 1 2 2 3 2 2 2 2 2
Wind_Direction
168 163 160 156 150 150 152 156 160 168 157 149 153 156 167 170 163 164 154 155 151 143 136 131 126 122 126 139 126 116 109 99 103 84 47 14 14 34 46 82 87 89 154
163 165 163 158 157 160 163 162 164 170 169 169 169 166 160 165 173 169 158 161 154 148 145 139 139 132 123 117 112 113 119 134 114 117 92 17 357 359 13 38 84 86 80
173 172 170 170 165 166 170 170 170 170 171 160 139 130 107 97 115 146 176 183 165 158 152 150 145 134 126 138 140 124 128 135 42 113 132 138 219 319 347 10 52 67 40
172 174 172 172 173 175 175 172 169 167 167 157 153 154 160 172 189 181 180 180 168 159 160 158 152 144 136 145 162 135 134 131 130 7 90 147 156 150 332 343 357 10 303
174 177 179 176 175 173 172 170 163 160 163 164 165 163 168 177 165 154 157 169 171 165 165 157 152 152 150 156 159 145 143 143 143 140 118 82 77 109 138 273 328 342 320
175 177 174 165 167 167 165 162 159 169 171 170 172 172 172 168 158 162 166 173 172 171 171 160 159 159 156 162 166 168 160 161 142 135 132 136 140 172 143 171 262 301 308
167 169 164 165 168 169 168 164 165 175 181 177 183 186 183 175 175 176 171 172 170 177 188 172 168 167 174 173 162 158 164 166 159 166 167 159 169 161 147 143 194 295 309
165 169 169 169 169 171 169 168 172 180 186 186 189 190 184 179 180 177 172 179 181 185 181 175 175 175 177 178 164 166 191 179 174 181 168 152 181 163 157 159 154 94 330
163 165 165 166 167 170 174 175 178 182 189 190 185 182 182 179 179 179 177 182 182 178 172 173 176 182 180 177 164 181 213 196 179 183 172 166 199 181 170 165 160 154 194
147 152 153 159 163 168 175 178 175 180 187 185 185 181 186 184 180 175 178 177 178 173 170 175 178 181 181 179 174 183 203 181 199 171 152 172 201 194 189 179 170 157 166
156 151 150 151 151 151 161 173 176 175 179 185 188 187 187 182 177 178 179 177 173 173 177 181 179 181 185 186 183 200 179 174 199 186 153 197 188 179 210 186 171 168 155
150 149 151 148 148 148 154 163 172 172 178 182 176 181 186 178 177 182 180 173 171 177 181 180 178 184 187 188 188 199 188 179 192 198 172 221 189 208 222 185 191 192 181
133 131 141 142 148 152 151 154 165 163 165 170 165 162 175 184 182 185 177 171 168 169 171 173 177 184 188 191 197 192 188 191 196 193 194 211 187 223 234 206 201 201 193
138 132 134 138 143 147 148 147 154 150 145 150 154 163 177 187 186 180 171 166 165 165 169 173 175 177 178 183 191 185 184 197 204 203 202 202 192 204 212 213 210 190 167
152 149 147 145 141 138 140 141 146 144 139 136 151 167 170 164 167 173 164 155 156 167 168 165 164 169 173 184 181 185 183 186 193 207 204 199 191 189 202 201 198 180 173
155 151 147 145 147 147 147 141 139 140 134 138 152 165 161 154 155 167 164 153 146 148 148 156 161 166 184 189 182 176 179 179 183 205 226 234 215 203 204 201 193 185 187
137 148 153 155 160 161 156 154 152 143 139 145 153 164 143 141 152 165 163 161 156 151 153 165 164 171 193 185 179 180 171 181 197 205 210 241 251 222 215 233 232 230 224
126 142 157 159 164 157 146 142 138 139 140 137 147 156 145 136 138 145 167 172 162 159 174 180 173 174 201 189 182 180 173 182 207 212 203 206 245 243 211 214 234 249 252
143 156 158 157 153 149 146 136 132 130 135 146 159 157 144 140 144 158 181 179 162 172 186 180 178 183 212 204 195 175 167 183 233 237 225 209 222 240 210 197 239 269 278
144 144 129 119 129 144 139 134 138 138 154 169 166 159 152 158 167 173 194 196 173 185 178 176 186 189 209 214 196 175 166 183 236 261 252 230 221 222 197 196 212 243 261
158 143 131 133 154 153 136 138 144 157 174 157 142 142 151 165 170 171 178 160 159 158 165 174 188 186 195 191 177 172 166 188 212 241 263 265 248 234 219 213 216 231 241
139 136 128 135 173 155 143 142 167 182 160 146 142 146 155 174 165 161 180 173 159 164 179 174 178 204 193 187 189 181 182 184 192 232 249 260 261 254 240 228 238 240 234
161 137 132 140 171 172 159 162 191 169 144 139 153 171 174 178 168 168 175 174 161 167 192 185 199 225 233 246 230 206 203 200 205 238 251 261 263 262 256 251 248 234 205
151 140 136 146 175 201 180 176 176 157 144 150 170 180 175 181 172 173 175 173 175 175 184 198 203 212 212 229 226 231 230 226 237 260 278 274 268 263 268 276 267 238 214
165 151 149 163 190 198 196 184 161 147 147 160 173 184 186 193 194 184 192 193 208 198 188 197 198 198 219 227 211 202 208 209 213 207 294 325 311 287 289 280 268 246 231
159 151 158 171 192 193 203 204 173 156 154 159 175 191 192 198 189 172 346 327 244 218 200 196 194 215 218 214 212 215 214 211 194 160 202 237 240 237 237 243 255 252 238